Flag for Guadeloupe Weather past 2 weeks in Basse-Terre, Guadeloupe

Now
86 °F

Broken clouds.


Feels Like: 93 °F
Forecast: 78 / 82 °F
Wind: 12 mph from Southeast

Location: Le Raizet - Guadeloupe

Current Time: Aug 23, 2014 at 11:54:12 AM

Latest Report: Aug 23, 2014 at 11:38 AM


Visibility: N/A

Pressure: 29.95 "Hg

Humidity: 66%

Dew point: 73 °F

Location of Basse-TerreLocation

Historic Weather in Basse-Terre — Graph

°F

Basse-Terre temperature yesterday

Maximum temperature yesterday: 84 °F (at 2:30 PM)
Minimum temperature yesterday: 77 °F (at 12:00 AM)
Average temperature yesterday: 80 °F

Past Weeks' High & Low Weather Summary

 TemperatureHumidityPressure
High90 °F (Aug 12, 12:30 PM)94% (Aug 8, 10:00 AM)30.09 "Hg (Aug 8, 10:00 AM)
Low73 °F (Aug 9, 2:00 AM)49% (Aug 14, 2:30 PM)29.83 "Hg (Aug 21, 3:30 PM)
Average81 °F76%29.98 "Hg
* Reported Aug 8 10:00 AM — Aug 23 10:30 AM, Basse-Terre, Weather by CustomWeather, © 2014

Note: Actual official high and low records may vary slightly from our data, if they occured in-between our weather recording intervals... More about our weather records

Advertising

Basse-Terre weather history for previous 24 hours

 ConditionsComfort  
Time TempWeatherWind HumidityBarometerVisibility
10:30 AM
Aug 23
84 °FBroken clouds.8 mph70%29.95 "HgN/A
10:00 AM84 °FBroken clouds.9 mph70%29.95 "HgN/A
9:30 AM82 °FBroken clouds.10 mph70%29.95 "HgN/A
9:00 AM81 °FBroken clouds.7 mph79%29.95 "HgN/A
8:30 AM81 °FBroken clouds.6 mph79%29.95 "HgN/A
8:00 AM81 °FBroken clouds.6 mph79%29.95 "HgN/A
7:30 AM81 °FOvercast.6 mph84%29.92 "HgN/A
7:00 AM81 °FBroken clouds.5 mph84%29.92 "HgN/A
6:30 AM79 °FPartly sunny.3 mph89%29.92 "HgN/A
6:00 AM79 °FClear.3 mph89%29.92 "HgN/A
5:30 AM79 °FClear.5 mph84%29.89 "HgN/A
5:00 AM79 °FClear.6 mph84%29.89 "HgN/A
4:30 AM79 °FClear.6 mph84%29.92 "HgN/A
4:00 AM81 °FOvercast.6 mph84%29.92 "HgN/A
3:30 AM79 °FMostly cloudy.5 mph89%29.89 "HgN/A
3:00 AM79 °FMostly cloudy.5 mph84%29.89 "HgN/A
2:30 AM79 °FClear.3 mph84%29.89 "HgN/A
2:00 AM79 °FClear.5 mph84%29.92 "HgN/A
1:30 AM79 °FClear.6 mph84%29.92 "HgN/A
1:00 AM79 °FClear.7 mph84%29.92 "HgN/A
12:30 AM81 °FClear.6 mph84%29.92 "HgN/A
12:00 AM81 °FClear.6 mph84%29.95 "HgN/A
11:30 PM
Aug 22
81 °FOvercast.6 mph84%29.95 "HgN/A
11:00 PM81 °FClear.5 mph84%29.95 "HgN/A
10:30 PM81 °FClear.7 mph84%29.95 "HgN/A
10:00 PM81 °FClear.9 mph84%29.95 "HgN/A
9:30 PM81 °FMostly cloudy.6 mph84%29.95 "HgN/A
9:00 PM81 °FPartly cloudy.5 mph84%29.95 "HgN/A
8:30 PM81 °FMostly cloudy.6 mph84%29.95 "HgN/A
8:00 PM81 °FMostly cloudy.6 mph84%29.95 "HgN/A
7:30 PM81 °FOvercast.6 mph79%29.92 "HgN/A
7:00 PM81 °FPartly cloudy.3 mph79%29.92 "HgN/A
6:30 PM82 °FPartly cloudy.6 mph74%29.89 "HgN/A
6:00 PM82 °FBroken clouds.6 mph74%29.89 "HgN/A
5:30 PM82 °FBroken clouds.6 mph74%29.89 "HgN/A
5:00 PM82 °FBroken clouds.7 mph74%29.89 "HgN/A
4:30 PM82 °FBroken clouds.9 mph74%29.89 "HgN/A
4:00 PM82 °FBroken clouds.12 mph74%29.89 "HgN/A
3:30 PM82 °FBroken clouds.15 mph74%29.89 "HgN/A
3:00 PM84 °FBroken clouds.15 mph70%29.89 "HgN/A
2:30 PM84 °FBroken clouds.15 mph70%29.89 "HgN/A
2:00 PM82 °FBroken clouds.12 mph79%29.89 "HgN/A
1:30 PM82 °FBroken clouds.12 mph84%29.89 "HgN/A
1:00 PM81 °FLight rain. Broken clouds.9 mph84%29.92 "Hg3 mi
12:30 PM81 °FLight rain. Broken clouds.12 mph84%29.92 "Hg3 mi
12:00 PM79 °FLight rain. Broken clouds.13 mph84%29.95 "Hg3 mi
11:20 AM81 °FLight rain. Broken clouds.13 mph84%29.92 "Hg3 mi
11:00 AM81 °FBroken clouds.13 mph84%29.95 "HgN/A
Weather by CustomWeather, © 2014

See weather overviewHow to use our weather pages